Regional Weather Roundup
Issued by NWS

Home | Current Version | Previous Version | Text Only | Print | Product List | Glossary On
Versions: 1 2 3 4 5 6 7 8 9 10 11 12 13 14 15 16 17 18 19 20 21 22 23 24 25 26 27 28 29 30 31 32 33 34 35 36 37 38 39 40 41 42 43 44 45 46 47 48 49 50
000
ASUS44 KFWD 251510
RWRTX
NORTH TEXAS HOURLY WEATHER ROUNDUP
NATIONAL WEATHER SERVICE FORT WORTH TX
1000 AM CDT SAT MAR 25 2017

NOTE: "FAIR" INDICATES FEW OR NO CLOUDS BELOW 12,000 FEET WITH NO
SIGNIFICANT WEATHER AND/OR OBSTRUCTIONS TO VISIBILITY.

TXZ118-119-251600-
DALLAS/FORT WORTH METROPLEX

CITY           SKY/WX    TMP DP  RH WIND       PRES   REMARKS
DFW AIRPORT    MOSUNNY   59  44  57 NW17      30.02S
DALLAS LOVE    MOSUNNY   58  44  60 NW13      30.03S
FTW MEACHAM    SUNNY     58  42  55 NW15      30.04S
DAL-EXECUTIVE  SUNNY     57  45  64 NW18      30.03R
FTW-ALLIANCE   MOSUNNY   56  44  64 NW14      30.04R
FTW-NAS-JRB    MOSUNNY   58  43  57 NW15      30.05S
FTW-SPINKS     SUNNY     57  43  58 NW12G24   30.07R
ARLINGTON      SUNNY     58  43  57 NW16G23   30.05R
GRAND PRAIRIE  SUNNY     61  43  51 NW6       30.06R
ADDISON        MOSUNNY   57  45  62 NW13G21   30.04R
MESQUITE       SUNNY     57  45  62 W13       30.03S
LANCASTER      SUNNY     56  46  66 NW13G22   30.04S
$$

TXZ091>094-102>105-117-120-121-131>134-251600-
NORTH CENTRAL TEXAS

CITY           SKY/WX    TMP DP  RH WIND       PRES   REMARKS
SHRMAN/DENISON CLOUDY    56  46  69 NW9       30.02R
GAINESVILLE    CLOUDY    53  43  69 NW10      30.04F
BOWIE          CLOUDY    55  44  67 W8        30.04F
BRIDGEPORT     CLOUDY    54  42  65 NW8       30.07S
DECATUR        PTSUNNY   54  42  65 W9        30.04S
DENTON         CLOUDY    55  44  66 NW16      30.03S
MCKINNEY       MOSUNNY   56  47  71 W12       30.03R
BONHAM         CLOUDY    57  46  67 W10       30.00R
GREENVILLE       N/A     57  45  62 NW13      30.02R
ROCKWALL       SUNNY     57  45  64 NW14      30.03S
TERRELL        SUNNY     58  45  62 NW14      30.02S
WAXAHACHIE     SUNNY     57  46  65 NW15G21   30.05R
CLEBURNE       SUNNY     57  45  62 NW17      30.07S
GRANBURY       SUNNY     58  43  56 NW16G22   30.09R
$$

TXZ083>090-098>101-113>116-127>130-139>142-154-155-251600-
WESTERN NORTH TEXAS

CITY           SKY/WX    TMP DP  RH WIND       PRES   REMARKS
WICHITA FALLS  CLOUDY    54  42  64 NW14      30.04R
WF-KICKAPOO    PTSUNNY   55  42  60 NW10G16   30.06S
VERNON         SUNNY     56  37  48 NW18      30.07R
ABILENE        SUNNY     53  39  59 NW14      30.11S
ABILENE-DYESS  SUNNY     54  39  56 NW13      30.11S
GRAHAM         CLOUDY    53  42  66 NW9G17    30.07R
BRECKENRIDGE   SUNNY     56  40  53 NW12G20   30.10R
CISCO          SUNNY     54  39  58 NW13G18   30.10S
RANGER         SUNNY     54  39  58 NW12G21   30.10R
MINERAL WELLS  PTSUNNY   55  41  59 NW16      30.06R
STEPHENVILLE   SUNNY     55  40  55 NW14G21   30.11R
COMANCHE       SUNNY     56  42  59 NW16G23   30.11R
BROWNWOOD      SUNNY     57  39  51 NW17G23   30.11F
COLEMAN        SUNNY     56  38  51 NW14      30.12S
$$

TXZ143>147-156>162-174-175-251600-
CENTRAL TEXAS

CITY           SKY/WX    TMP DP  RH WIND       PRES   REMARKS
WACO           SUNNY     59  45  59 NW15      30.06F
WACO-TSTC      SUNNY     59  46  63 NW10G17   30.06S
WACO-MCGREGOR  SUNNY     59  45  59 NW9       30.08R
HILLSBORO      SUNNY     58  47  67 NW10      30.06R
CORSICANA      SUNNY     59  48  67 NW16      30.06R
MEXIA          SUNNY     58  46  63 W14G21    30.05S
HEARNE         SUNNY     60  47  62 NW10      30.08S
CAMERON        SUNNY     61  47  59 NW10      30.08R
TEMPLE         SUNNY     60  45  57 NW15      30.08R
KILLEEN        SUNNY     58  42  54 N15       30.07S
KILLEEN-SKYLRK SUNNY     59  43  55 NW13      30.09R
FORT HOOD      SUNNY     58  43  55 NW13      30.05S
GATESVILLE     SUNNY     59  43  55 NW8G17    30.10S
HAMILTON       SUNNY     57  42  55 NW17G24   30.09R
LAMPASAS       SUNNY     58  44  59 NW10      30.09S
$$

TXZ095>097-106>112-122>126-135>138-148>153-164>167-251600-
EAST TEXAS

CITY           SKY/WX    TMP DP  RH WIND       PRES   REMARKS
PARIS          PTSUNNY   59  48  67 W16       29.97R
SULPHUR SPRNGS CLOUDY    57  48  71 W15       30.03R
MOUNT PLEASANT SUNNY     60  48  64 W13       30.00R
GILMER         MOSUNNY   58  48  69 W9        30.00R
MINEOLA        PTSUNNY   59  48  67 NW10G18   30.01R
TYLER          SUNNY     59  48  67 W10       30.01R
LONGVIEW       SUNNY     62  51  67 W13       29.99R
MARSHALL         N/A    N/A N/A N/A MISG        N/A
ATHENS         SUNNY     57  45  62 NW8       30.01S
PALESTINE      SUNNY     59  51  73 NW9G16    30.04S
JACKSONVILLE   SUNNY     59  49  68 NW9       30.04R
HENDERSON      SUNNY     60  49  65 NW8G16    30.02S
CENTER         SUNNY     67  51  56 W10       30.01R
NACOGDOCHES    MOSUNNY   63  48  59 NW9       30.01R
LUFKIN         SUNNY     63  51  65 W7        30.03R
$$

SUPPLEMENTAL OBSERVATIONS (CENTRAL)

CITY           SKY/WX    TMP DP  RH WIND       PRES   REMARKS
CADDO GRASSLND   N/A     59  46  63 W7G17       N/A
PAT MAYSE LAKE   N/A     55  48  76 SW12        N/A
GREENVILLE       N/A     57  46  67 W10         N/A
MCGREGOR         N/A     61  45  55 NW6G17      N/A
TEMPLE           N/A     61  43  51 NW5G14      N/A
$$

SUPPLEMENTAL OBSERVATIONS (WEST)

CITY           SKY/WX    TMP DP  RH WIND       PRES   REMARKS
MILLERS CREEK    N/A     54  39  58 NW13        N/A
POSSUM KINGDOM   N/A     54  39  58 NW12        N/A
LBJ GRASSLAND    N/A     55  43  62 W10         N/A
GRANBURY         N/A     57  41  54 NW18        N/A
HAMBY            N/A     54  37  54 NW13        N/A
IVIE RESERVOIR   N/A     57  37  47 NW14        N/A
COLORADO BEND    N/A     57  39  51 N12         N/A
$$

SUPPLEMENTAL OBSERVATIONS (EAST)

CITY           SKY/WX    TMP DP  RH WIND       PRES   REMARKS
CLARKSVILLE      N/A     61  50  67 W6G14       N/A
TEXARKANA        N/A     63  52  67 W7G15       N/A
LINDEN           N/A     63  50  63 W6          N/A
GILMER           N/A     61  48  63 W8G16       N/A
HENDERSON        N/A     63  48  59 W12         N/A
LUFKIN           N/A     64  48  55 MISG        N/A
N SABINE NF      N/A     64  54  68 MISG        N/A
S SABINE NF      N/A     64  57  77 N2          N/A
$$

SUPPLEMENTAL OBSERVATIONS ARE A COLLECTION OF AUTOMATED INSTRUMENTS
THAT ARE MAINTAINED BY A VARIETY OF FEDERAL AND STATE AGENCIES.
CERTAIN ELEMENTS...SUCH AS HUMIDITY VALUES AND SUSTAINED WIND
SPEEDS...MAY BE APPROXIMATED.




USA.gov is the U.S. government's official web portal to all federal, state and local government web resources and services.